Torna al catalogo

ATLAS 5 CENTAUR DEB

LostHEO
NORAD 49377·DEBRIS·🇺🇸 United States

Lanciato Oct 17, 2018 da Cape Canaveral Space Force Station

Loading…

Prossimi Passaggi (prossime 24 ore)

TLE

ObsoletoSource: Space-Track

Epoca: Apr 19, 2024, 01:04 UTC

1 49377U 18079GE  24110.04496455 -.00000037  00000-0  00000+0 0  9990
2 49377  11.9809 100.7625 4793280 196.4848 140.0055  1.84829731 17819

Traccia ATLAS 5 CENTAUR DEB in tempo reale con AllMySat

Download on the App Store